KG7MRB Weather Reports


Display with metric or nautical units.
time (UTC)temp
F
wind
direction
speed
MPH
gust
MPH
rain 1hr
in
rain 24hr
in
rain mn
in
humidity
%
barometer
mb
20260504204234 82 68 1.0 4.0 0.00 0.00 0.00 35 1028.0
20260504203733 82 338 6.0 8.0 0.00 0.00 0.00 37 1027.9
20260504203230 82 17 2.0 4.0 0.00 0.00 0.00 36 1028.1
20260504202730 81 113 1.0 4.0 0.00 0.00 0.00 37 1028.0
20260504202227 82 123 3.0 4.0 0.00 0.00 0.00 38 1028.0
20260504201724 81 22 1.0 3.0 0.00 0.00 0.00 37 1027.8
20260504201221 81 1 4.0 8.0 0.00 0.00 0.00 36 1027.9
20260504200719 81 24 3.0 6.0 0.00 0.00 0.00 34 1028.0
20260504200215 80 11 0.0 7.0 0.00 0.00 0.00 39 1028.0
20260504195711 80 75 1.0 9.0 0.00 0.00 0.00 39 1028.2
20260504195207 81 90 1.0 4.0 0.00 0.00 0.00 36 1028.0
20260504194704 82 320 2.0 3.0 0.00 0.00 0.00 36 1028.0
20260504194201 80 67 2.0 6.0 0.00 0.00 0.00 35 1028.1
20260504193657 81 9 4.0 6.0 0.00 0.00 0.00 36 1028.1
20260504193155 81 8 2.0 6.0 0.00 0.00 0.00 35 1028.1
20260504192653 79 21 4.0 8.0 0.00 0.00 0.00 37 1028.2
20260504192150 80 347 0.0 2.0 0.00 0.00 0.00 37 1027.9
20260504191649 79 342 2.0 10.0 0.00 0.00 0.00 37 1027.9
20260504191144 80 7 1.0 8.0 0.00 0.00 0.00 36 1028.1
20260504190640 80 2 2.0 4.0 0.00 0.00 0.00 37 1028.1
20260504190138 80 81 1.0 4.0 0.00 0.00 0.00 37 1028.3
20260504185634 80 33 1.0 3.0 0.00 0.00 0.00 37 1028.1
20260504185131 79 0 4.0 9.0 0.00 0.00 0.00 39 1027.9
20260504184627 79 10 3.0 4.0 0.00 0.00 0.00 38 1028.3
20260504184121 79 285 0.0 4.0 0.00 0.00 0.00 38 1028.1
20260504183619 78 352 4.0 7.0 0.00 0.00 0.00 38 1028.2
20260504183117 78 358 2.0 6.0 0.00 0.00 0.00 41 1028.1
20260504182614 78 357 4.0 7.0 0.00 0.00 0.00 38 1028.3
20260504182111 79 279 1.0 2.0 0.00 0.00 0.00 38 1028.1
20260504181609 78 59 2.0 2.0 0.00 0.00 0.00 38 1028.1
20260504181106 78 291 0.0 8.0 0.00 0.00 0.00 41 1028.4
20260504180605 78 5 3.0 9.0 0.00 0.00 0.00 38 1028.0
20260504180104 77 117 0.0 2.0 0.00 0.00 0.00 40 1028.1
20260504175600 77 220 1.0 9.0 0.00 0.00 0.00 37 1028.1
20260504175057 77 273 4.0 11.0 0.00 0.00 0.00 37 1028.2
20260504174555 77 335 2.0 7.0 0.00 0.00 0.00 35 1028.2
20260504174051 77 302 1.0 2.0 0.00 0.00 0.00 39 1028.0
20260504173548 77 80 1.0 3.0 0.00 0.00 0.00 41 1028.1
20260504173046 76 60 1.0 3.0 0.00 0.00 0.00 43 1028.2
20260504172542 75 71 1.0 2.0 0.00 0.00 0.00 45 1028.1
20260504172039 74 126 3.0 8.0 0.00 0.00 0.00 45 1028.3
20260504171536 75 112 2.0 2.0 0.00 0.00 0.00 49 1028.3
20260504171033 75 96 0.0 1.0 0.00 0.00 0.00 49 1028.6
20260504170528 74 69 0.0 0.0 0.00 0.00 0.00 50 1028.7
20260504150912 47 3 0.0 0.0 0.00 0.00 0.00 96 1029.3
20260504150409 46 4 0.0 0.0 0.00 0.00 0.00 97 1029.1
20260504140835 44 2 0.0 0.0 0.00 0.00 0.00 99 1029.0
20260504140331 44 2 0.0 0.0 0.00 0.00 0.00 99 1028.8
20260504130800 44 4 0.0 0.0 0.00 0.00 0.00 99 1028.5
20260504130256 44 4 0.0 0.0 0.00 0.00 0.00 99 1028.8
20260504120220 45 96 0.0 0.0 0.00 0.00 0.00 98 1028.6
20260504110647 46 43 0.0 0.0 0.00 0.00 0.00 97 1028.8
20260504110143 47 41 0.0 0.0 0.00 0.00 0.00 98 1028.8
20260504100609 48 52 0.0 0.0 0.00 0.00 0.00 96 1028.5
20260504100108 48 52 0.0 0.0 0.00 0.00 0.00 96 1028.7
20260504082003 51 57 0.0 0.0 0.00 0.00 0.00 93 1028.6
20260504081501 51 57 0.0 0.0 0.00 0.00 0.00 92 1028.4
20260504080956 51 57 0.0 0.0 0.00 0.00 0.00 92 1028.2
20260504080452 51 57 0.0 0.0 0.00 0.00 0.00 92 1028.7
20260504050259 57 161 0.0 0.0 0.00 0.00 0.00 80 1028.5
20260504045756 58 161 0.0 0.0 0.00 0.00 0.00 80 1028.3
20260504045251 58 161 0.0 0.0 0.00 0.00 0.00 79 1028.6
20260504044749 58 161 0.0 0.0 0.00 0.00 0.00 79 1028.3
20260504044246 59 161 0.0 1.0 0.00 0.00 0.00 78 1028.4
20260504043743 59 161 0.0 0.0 0.00 0.00 0.00 76 1028.5
20260504043239 59 161 0.0 0.0 0.00 0.00 0.00 76 1028.5
20260504042732 60 161 0.0 1.0 0.00 0.00 0.00 76 1028.5
20260504042228 60 161 0.0 0.0 0.00 0.00 0.00 75 1028.4
20260504041724 60 161 1.0 1.0 0.00 0.00 0.00 73 1028.4
20260504041220 61 161 0.0 0.0 0.00 0.00 0.00 73 1028.4
20260504040717 61 161 0.0 0.0 0.00 0.00 0.00 73 1028.4
20260504040214 62 161 0.0 0.0 0.00 0.00 0.00 72 1028.3
20260504035710 62 161 0.0 0.0 0.00 0.00 0.00 71 1028.4
20260504035208 63 161 0.0 0.0 0.00 0.00 0.00 71 1028.3
20260504034705 63 161 0.0 0.0 0.00 0.00 0.00 70 1028.1
20260504034202 64 161 0.0 0.0 0.00 0.00 0.00 70 1028.2
20260504033700 64 161 0.0 0.0 0.00 0.00 0.00 69 1028.1
20260504033157 65 161 0.0 0.0 0.00 0.00 0.00 67 1028.3
20260504032653 66 161 0.0 0.0 0.00 0.00 0.00 65 1028.1
20260504032151 66 161 0.0 0.0 0.00 0.00 0.00 63 1028.1
20260504031648 66 161 0.0 0.0 0.00 0.00 0.00 65 1028.0
20260504031144 67 161 0.0 0.0 0.00 0.00 0.00 63 1027.9
20260504030641 68 161 0.0 0.0 0.00 0.00 0.00 61 1028.0
20260504030138 68 161 0.0 0.0 0.00 0.00 0.00 61 1028.0
20260504025634 69 161 0.0 0.0 0.00 0.00 0.00 60 1027.9
20260504025131 70 161 0.0 1.0 0.00 0.00 0.00 59 1027.9
20260504024629 71 161 0.0 2.0 0.00 0.00 0.00 57 1027.8
20260504024125 73 353 0.0 0.0 0.00 0.00 0.00 50 1028.0
20260504023622 74 352 1.0 2.0 0.00 0.00 0.00 47 1027.5
20260504023118 76 348 3.0 4.0 0.00 0.00 0.00 42 1027.7
20260504022614 76 0 3.0 4.0 0.00 0.00 0.00 40 1027.9
20260504022110 77 3 2.0 4.0 0.00 0.00 0.00 37 1027.9
20260504021608 78 8 3.0 7.0 0.00 0.00 0.00 37 1028.0
20260504021105 78 21 5.0 8.0 0.00 0.00 0.00 37 1028.1
20260504020602 78 347 3.0 7.0 0.00 0.00 0.00 40 1027.9
20260504020058 78 3 4.0 7.0 0.00 0.00 0.00 42 1028.2
20260504015554 78 353 4.0 10.0 0.00 0.00 0.00 42 1028.2
20260504015050 78 336 4.0 6.0 0.00 0.00 0.00 43 1028.1
20260504014547 79 357 6.0 7.0 0.00 0.00 0.00 41 1028.1
20260504014044 79 344 3.0 6.0 0.00 0.00 0.00 41 1028.2
20260504013541 79 346 4.0 9.0 0.00 0.00 0.00 40 1028.1
20260504013038 79 10 6.0 7.0 0.00 0.00 0.00 39 1028.1
20260504012536 79 358 5.0 7.0 0.00 0.00 0.00 40 1028.2
20260504012033 80 11 2.0 3.0 0.00 0.00 0.00 40 1028.2
20260504011530 80 10 5.0 7.0 0.00 0.00 0.00 39 1028.3
20260504011026 80 18 3.0 4.0 0.00 0.00 0.00 40 1028.5
20260504010522 80 11 3.0 4.0 0.00 0.00 0.00 41 1028.7
20260504010018 80 352 3.0 7.0 0.00 0.00 0.00 40 1028.5
20260504005515 80 346 6.0 9.0 0.00 0.00 0.00 39 1028.5
20260504005013 81 8 7.0 8.0 0.00 0.00 0.00 39 1028.4
20260504004510 81 15 7.0 9.0 0.00 0.00 0.00 39 1028.6
20260504004007 81 352 5.0 8.0 0.00 0.00 0.00 39 1028.5
20260504003503 81 353 6.0 7.0 0.00 0.00 0.00 39 1028.6
20260504003000 81 2 5.0 7.0 0.00 0.00 0.00 37 1028.7
20260504002457 81 12 6.0 8.0 0.00 0.00 0.00 38 1028.7
20260504001954 81 6 5.0 8.0 0.00 0.00 0.00 37 1028.7
20260504001452 81 359 4.0 7.0 0.00 0.00 0.00 38 1028.7
20260504000948 82 353 2.0 6.0 0.00 0.00 0.00 39 1029.0
20260504000445 82 12 2.0 6.0 0.00 0.00 0.00 38 1028.9
20260503235942 82 18 6.0 8.0 0.00 0.00 0.00 38 1028.9
20260503235440 82 359 3.0 4.0 0.00 0.00 0.00 38 1029.0
20260503234937 83 15 3.0 6.0 0.00 0.00 0.00 38 1029.0
20260503234435 83 223 3.0 8.0 0.00 0.00 0.00 39 1028.9
20260503233933 83 305 2.0 3.0 0.00 0.00 0.00 38 1029.0
20260503233429 83 3 4.0 9.0 0.00 0.00 0.00 39 1029.1
20260503232926 83 350 5.0 8.0 0.00 0.00 0.00 39 1029.0
20260503232422 84 8 6.0 7.0 0.00 0.00 0.00 37 1029.1
20260503231920 83 352 5.0 7.0 0.00 0.00 0.00 38 1029.3
20260503231418 83 8 9.0 11.0 0.00 0.00 0.00 38 1029.2
20260503230914 82 11 5.0 6.0 0.00 0.00 0.00 37 1029.5
20260503230410 84 285 2.0 3.0 0.00 0.00 0.00 35 1029.2
20260503225908 82 356 1.0 2.0 0.00 0.00 0.00 39 1029.6
20260503225404 83 261 3.0 8.0 0.00 0.00 0.00 38 1029.6
20260503224900 85 297 3.0 4.0 0.00 0.00 0.00 38 1029.6
20260503224357 84 34 1.0 7.0 0.00 0.00 0.00 36 1029.7
20260503223855 83 325 3.0 8.0 0.00 0.00 0.00 36 1029.8
20260503223353 83 333 6.0 10.0 0.00 0.00 0.00 35 1029.7
20260503222848 83 358 2.0 6.0 0.00 0.00 0.00 36 1029.8
20260503222347 84 1 8.0 10.0 0.00 0.00 0.00 33 1029.7
20260503221845 84 194 2.0 3.0 0.00 0.00 0.00 32 1029.8
20260503221343 83 16 3.0 7.0 0.00 0.00 0.00 33 1029.9
20260503220838 83 345 4.0 6.0 0.00 0.00 0.00 36 1030.0
20260503220336 83 25 1.0 6.0 0.00 0.00 0.00 33 1030.0
20260503215833 83 343 4.0 8.0 0.00 0.00 0.00 33 1030.3
20260503215330 83 354 6.0 8.0 0.00 0.00 0.00 33 1030.4
20260503214827 84 343 1.0 1.0 0.00 0.00 0.00 32 1030.2
20260503214324 83 358 4.0 7.0 0.00 0.00 0.00 31 1030.4
20260503213821 84 18 1.0 3.0 0.00 0.00 0.00 32 1030.4
20260503213319 82 38 2.0 7.0 0.00 0.00 0.00 33 1030.2
20260503212816 83 347 0.0 2.0 0.00 0.00 0.00 32 1030.4
20260503212314 83 1 1.0 6.0 0.00 0.00 0.00 33 1030.2
20260503211811 82 77 1.0 3.0 0.00 0.00 0.00 35 1030.5
20260503211308 82 357 6.0 7.0 0.00 0.00 0.00 32 1030.5
20260503210807 82 39 4.0 8.0 0.00 0.00 0.00 32 1030.2
20260503210306 82 77 0.0 4.0 0.00 0.00 0.00 33 1030.5
20260503205800 81 293 1.0 2.0 0.00 0.00 0.00 32 1030.7
20260503205257 82 252 2.0 3.0 0.00 0.00 0.00 32 1030.8
20260503204754 81 184 0.0 2.0 0.00 0.00 0.00 34 1030.9